Погода в Уразово

Россия / Республика Башкортостан     54°16′27″N   59°08′13″E
темп.,
°C
ветер,
м/с
пор.,
м/с
влажн.,
%
обл.,
%
осадки,
мм/ч
давл.,
гПа
погр.,
м
11 апреля, вс
вс1123:00+1ю24100100 0.0 1037111
02:00+1ююз2799100 0.0 1037256
05:000ююз4897100 0.0 1037262
08:00−1ююз499627 0.0 1038208
11:00+1ююз48100100 0.0 1038200
14:00+2ююз58100100 0.0 1037246
17:00+3ююз5899100 0.0 1036258
20:00+2ююз359976 0.0 1036119
12 апреля, пн
пн1223:00+1зюз229996 0.0 103642
02:00+3зюз229999 0.0 103622
05:00+3з119749 0.0 103611
08:00+3зсз119322 0.0 103611
11:00+9св128089 0.0 1036167
14:00+12в2375100 0.0 1035420
17:00+12в347689 0.0 1036576
20:00+8в228957 0.0 103722
13 апреля, вт
вт1323:00+6всв229890 0.0 103916
02:00+6всв129999 0.0 103985
05:00+5св119398 0.0 104022
08:00+6всв118036 0.0 104095
11:00+9юв22655 0.0 1040531
14:00+11ююв33615 0.0 1038835
17:00+12ю235974 0.0 1037897
20:00+9ю227314 0.0 103612
14 апреля, ср
ср1423:00+7ююз22805 0.0 103610
02:00+6юз12885 0.0 103510
05:00+5зюз11905 0.0 103510
08:00+7зюз11855 0.0 103453
11:00+11ю11675 0.0 1032394
14:00+14юв22585 0.0 1030811
17:00+15ю21565 0.0 1028880
20:00+11ю22715 0.0 102815
15 апреля, чт
чт1523:00+9юз22766 0.0 102710
02:00+8юз117615 0.0 102710
05:00+6зюз117722 0.0 102610
08:00+8з11735 0.0 102540
11:00+13ю21595 0.0 1023386
14:00+15ю324949 0.0 1022832
17:00+16ю333927 0.0 1020837
20:00+11ю33516 0.0 101929